Flag for Germany Weather past 2 weeks in Coesfeld, North Rhine-Westphalia, Germany

Now
50 °F

Cool.


Feels Like: 50 °F
Forecast: 54 / 71 °F
Wind: No wind

Location: Rheine-Bentlage

Current Time: Aug 28, 2014 at 1:12:57 AM

Latest Report: Aug 28, 2014 at 12:20 AM


Visibility: 0 mi

Pressure: 30.04 "Hg

Humidity: 100%

Dew point: 50 °F

Location of CoesfeldLocation

Historic Weather in Coesfeld — Graph

°F

Coesfeld temperature yesterday

Maximum temperature yesterday: 70 °F (at 3:20 PM)
Minimum temperature yesterday: 43 °F (at 5:20 AM)
Average temperature yesterday: 57 °F

Past Weeks' High & Low Weather Summary

 TemperatureHumidityPressure
High70 °F (Aug 13, 4:20 PM)100% (Aug 15, 1:20 AM)30.07 "Hg (Aug 15, 1:20 AM)
Low43 °F (Aug 25, 5:20 AM)43% (Aug 27, 6:20 PM)29.59 "Hg (Aug 18, 6:20 AM)
Average56 °F82%29.87 "Hg
* Reported Aug 12 11:20 PM — Aug 27 11:20 PM, Coesfeld, Weather by CustomWeather, © 2014

Note: Actual official high and low records may vary slightly from our data, if they occured in-between our weather recording intervals... More about our weather records

Advertising

Coesfeld weather history for previous 24 hours

 ConditionsComfort  
Time TempWeatherWind HumidityBarometerVisibility
11:20 PM
Aug 27
52 °FCool.1 mph94%30.04 "Hg0 mi
10:20 PM54 °FCool.No wind94%30.04 "Hg2 mi
9:20 PM55 °FCool.No wind94%30.04 "Hg3 mi
8:20 PM61 °FCool.No wind77%30.04 "Hg4 mi
7:20 PM68 °FMild.1 mph53%30.01 "Hg4 mi
6:20 PM70 °FMild.1 mph43%30.01 "Hg4 mi
5:20 PM68 °FMild.2 mph53%30.01 "Hg4 mi
4:20 PM70 °FMild.3 mph46%30.01 "Hg4 mi
3:20 PM70 °FPassing clouds.3 mph46%30.04 "HgN/A
2:20 PM68 °FPassing clouds.3 mph49%30.04 "HgN/A
1:20 PM68 °FPassing clouds.1 mph49%30.04 "HgN/A
12:20 PM66 °FPassing clouds.3 mph56%30.04 "HgN/A
11:20 AM64 °FPassing clouds.1 mph60%30.04 "HgN/A
10:20 AM61 °FPassing clouds.2 mph72%30.01 "HgN/A
9:20 AM55 °FCool.2 mph88%30.01 "Hg6 mi
8:20 AM48 °FFog.1 mph100%29.98 "Hg3 mi
7:20 AM43 °FFog.No wind100%29.98 "Hg3 mi
6:20 AM43 °FLight fog.No wind100%29.95 "Hg3 mi
5:20 AM43 °FLight fog.1 mph100%29.92 "Hg4 mi
4:20 AM45 °FQuite cool.No wind100%29.92 "Hg0 mi
3:20 AM46 °FCool.No wind93%29.89 "Hg0 mi
2:20 AM48 °FCool.2 mph94%29.89 "Hg1 mi
1:20 AM50 °FCool.3 mph94%29.89 "Hg1 mi
Weather by CustomWeather, © 2014

See weather overviewHow to use our weather pages